WMT474 LRIA-EKBI

Flight info

Callsign WMT474
Flight time 2h 22m
Altitude 38000
Route ARPIG P133 TOMUC DCT HUMOR DCT REPTO DCT BUZZE DCT SOMET DCT SAT DCT KENIN DCT LIGDI DCT BAREX DCT DENKO DCT BINKA DCT PEROM DCT NIKDA DCT GELBA
Aircraft A320/M-SDE3FGHIRWY/LB1

Departure

Time 2026-05-07 06:51
Airport Iaşi International Airport (LRIA)

Arrival

Time 2026-05-07 09:13
Airport Billund Airport (EKBI)
Time Latitude Longitude Altitude Speed Heading
2026-05-07 06:34 47.17453 27.62042 376 ft 0 kts 269°
2026-05-07 06:37 47.17453 27.62043 376 ft 0 kts 269°
2026-05-07 06:43 47.17453 27.62050 376 ft 4 kts 262°
2026-05-07 06:43 47.17460 27.62078 376 ft 3 kts 254°
2026-05-07 06:43 47.17463 27.62115 376 ft 4 kts 289°
2026-05-07 06:43 47.17450 27.62142 376 ft 1 kts 328°
2026-05-07 06:44 47.17446 27.62145 376 ft 1 kts 328°
2026-05-07 06:45 47.17446 27.62146 376 ft 0 kts 328°
2026-05-07 06:46 47.17453 27.62139 376 ft 2 kts 328°
2026-05-07 06:46 47.17478 27.62115 376 ft 6 kts 327°
2026-05-07 06:47 47.17530 27.62072 376 ft 11 kts 333°
2026-05-07 06:47 47.17611 27.62013 376 ft 15 kts 334°
2026-05-07 06:47 47.17708 27.61943 376 ft 15 kts 334°
2026-05-07 06:47 47.17790 27.62010 373 ft 17 kts 63°
2026-05-07 06:48 47.17849 27.62177 373 ft 20 kts 49°
2026-05-07 06:48 47.17962 27.62151 374 ft 17 kts 329°
2026-05-07 06:48 47.18059 27.62066 378 ft 16 kts 329°
2026-05-07 06:48 47.18151 27.61981 382 ft 16 kts 329°
2026-05-07 06:49 47.18248 27.61896 387 ft 17 kts 329°
2026-05-07 06:49 47.18371 27.61786 392 ft 23 kts 329°
2026-05-07 06:49 47.18507 27.61666 398 ft 22 kts 329°
2026-05-07 06:49 47.18634 27.61552 403 ft 22 kts 328°
2026-05-07 06:50 47.18767 27.61434 409 ft 22 kts 329°
2026-05-07 06:50 47.18904 27.61364 414 ft 17 kts 356°
2026-05-07 06:50 47.18924 27.61305 416 ft 4 kts 194°
2026-05-07 06:50 47.18821 27.61389 411 ft 48 kts 148°
2026-05-07 06:51 47.18324 27.61833 390 ft 114 kts 148°
2026-05-07 06:51 47.17511 27.62554 547 ft 146 kts 148°
2026-05-07 06:51 47.16633 27.63301 1172 ft 146 kts 150°
2026-05-07 06:51 47.15749 27.64083 1890 ft 150 kts 153°
2026-05-07 06:52 47.14807 27.64921 2234 ft 169 kts 152°
2026-05-07 06:52 47.13741 27.65865 2557 ft 192 kts 152°
2026-05-07 06:52 47.12498 27.66966 3034 ft 218 kts 150°
2026-05-07 06:52 47.11192 27.68129 3712 ft 225 kts 150°
2026-05-07 06:53 47.09814 27.69357 4473 ft 232 kts 149°
2026-05-07 06:53 47.08418 27.70599 5218 ft 238 kts 149°
2026-05-07 06:53 47.06998 27.71858 5925 ft 245 kts 149°
2026-05-07 06:53 47.05510 27.73165 6625 ft 253 kts 152°
2026-05-07 06:54 47.03806 27.73801 7308 ft 259 kts 184°
2026-05-07 06:54 47.02106 27.72968 8050 ft 263 kts 216°
2026-05-07 06:54 47.00926 27.70924 8802 ft 266 kts 248°
2026-05-07 06:54 47.00637 27.68267 9548 ft 268 kts 279°
2026-05-07 06:55 47.01340 27.65784 10244 ft 268 kts 311°
2026-05-07 06:55 47.02844 27.64201 10885 ft 270 kts 342°
2026-05-07 06:55 47.04690 27.63559 11547 ft 274 kts 349°
2026-05-07 06:55 47.06571 27.63005 12195 ft 278 kts 349°
2026-05-07 06:56 47.08491 27.62446 12873 ft 283 kts 348°
2026-05-07 06:56 47.10444 27.61874 13531 ft 288 kts 348°
2026-05-07 06:56 47.12427 27.61289 14136 ft 293 kts 348°
2026-05-07 06:56 47.14443 27.60688 14734 ft 297 kts 348°
2026-05-07 06:57 47.16477 27.60078 15349 ft 300 kts 348°
2026-05-07 06:57 47.18534 27.59457 15979 ft 303 kts 348°
2026-05-07 06:57 47.20598 27.58782 16578 ft 306 kts 341°
2026-05-07 06:57 47.22523 27.57472 17183 ft 306 kts 324°
2026-05-07 06:58 47.24162 27.55419 17551 ft 316 kts 308°
2026-05-07 06:58 47.25390 27.52667 17835 ft 326 kts 295°
2026-05-07 06:58 47.26455 27.49690 18353 ft 331 kts 295°
2026-05-07 06:58 47.27549 27.46680 18868 ft 334 kts 296°
2026-05-07 06:59 47.28655 27.43661 19399 ft 336 kts 296°
2026-05-07 06:59 47.29774 27.40619 19943 ft 338 kts 297°
2026-05-07 06:59 47.30900 27.37553 20484 ft 340 kts 297°
2026-05-07 06:59 47.32024 27.34477 21002 ft 342 kts 297°
2026-05-07 07:00 47.33150 27.31389 21503 ft 344 kts 297°
2026-05-07 07:00 47.34276 27.28301 21844 ft 351 kts 297°
2026-05-07 07:00 47.35458 27.25063 21979 ft 364 kts 297°
2026-05-07 07:00 47.36676 27.21722 22110 ft 376 kts 297°
2026-05-07 07:01 47.37927 27.18274 22237 ft 388 kts 297°
2026-05-07 07:01 47.39211 27.14727 22527 ft 395 kts 297°
2026-05-07 07:01 47.40508 27.11125 22966 ft 398 kts 297°
2026-05-07 07:01 47.41813 27.07501 23432 ft 401 kts 297°
2026-05-07 07:02 47.43124 27.03857 23853 ft 403 kts 297°
2026-05-07 07:02 47.44436 27.00205 24253 ft 404 kts 297°
2026-05-07 07:02 47.45760 26.96526 24665 ft 406 kts 297°
2026-05-07 07:02 47.47088 26.92833 25032 ft 407 kts 297°
2026-05-07 07:03 47.48419 26.89126 25452 ft 408 kts 297°
2026-05-07 07:03 47.49662 26.85357 25850 ft 409 kts 291°
2026-05-07 07:03 47.50483 26.81308 26213 ft 411 kts 281°
2026-05-07 07:03 47.50818 26.77103 26572 ft 413 kts 271°
2026-05-07 07:04 47.50858 26.72832 26910 ft 415 kts 271°
2026-05-07 07:04 47.50900 26.68553 27258 ft 417 kts 271°
2026-05-07 07:04 47.50930 26.65694 27500 ft 419 kts 271°
2026-05-07 07:04 47.50975 26.61382 27864 ft 421 kts 271°
2026-05-07 07:05 47.51018 26.57035 28227 ft 423 kts 271°
2026-05-07 07:05 47.51059 26.52603 28587 ft 426 kts 271°
2026-05-07 07:05 47.51099 26.48274 28955 ft 427 kts 271°
2026-05-07 07:05 47.51140 26.43865 29320 ft 429 kts 271°
2026-05-07 07:06 47.51179 26.39390 29676 ft 431 kts 271°
2026-05-07 07:06 47.51214 26.35002 30093 ft 432 kts 271°
2026-05-07 07:06 47.51247 26.30517 30547 ft 430 kts 270°
2026-05-07 07:06 47.51276 26.26158 30976 ft 428 kts 270°
2026-05-07 07:07 47.51305 26.21709 31408 ft 427 kts 270°
2026-05-07 07:07 47.51334 26.17315 31834 ft 426 kts 270°
2026-05-07 07:07 47.51361 26.12944 32285 ft 425 kts 270°
2026-05-07 07:07 47.51386 26.08615 32700 ft 424 kts 270°
2026-05-07 07:08 47.51410 26.04270 33123 ft 423 kts 270°
2026-05-07 07:08 47.51431 25.99919 33555 ft 422 kts 270°
2026-05-07 07:08 47.51447 25.95580 33974 ft 421 kts 270°
2026-05-07 07:08 47.51462 25.91247 34332 ft 420 kts 270°
2026-05-07 07:09 47.51529 25.86932 34662 ft 419 kts 275°
2026-05-07 07:09 47.51842 25.82651 34975 ft 419 kts 276°
2026-05-07 07:09 47.52159 25.78365 35293 ft 418 kts 276°
2026-05-07 07:09 47.52469 25.74088 35604 ft 418 kts 276°
2026-05-07 07:10 47.52775 25.69816 35919 ft 417 kts 276°
2026-05-07 07:10 47.53079 25.65545 36222 ft 417 kts 276°
2026-05-07 07:10 47.53379 25.61273 36522 ft 416 kts 275°
2026-05-07 07:10 47.53677 25.57021 36800 ft 415 kts 275°
2026-05-07 07:11 47.53974 25.52763 37087 ft 415 kts 276°
2026-05-07 07:11 47.54270 25.48530 37370 ft 414 kts 275°
2026-05-07 07:11 47.54564 25.44286 37641 ft 414 kts 275°
2026-05-07 07:11 47.54854 25.40060 37910 ft 413 kts 275°
2026-05-07 07:12 47.55145 25.35815 38019 ft 414 kts 275°
2026-05-07 07:12 47.55433 25.31570 38028 ft 414 kts 275°
2026-05-07 07:12 47.56006 25.23134 38033 ft 414 kts 275°
2026-05-07 07:13 47.56581 25.14592 38037 ft 414 kts 275°
2026-05-07 07:13 47.57141 25.06170 38040 ft 413 kts 275°
2026-05-07 07:14 47.57700 24.97696 38046 ft 413 kts 275°
2026-05-07 07:14 47.58252 24.89207 38049 ft 414 kts 275°
2026-05-07 07:15 47.58794 24.80719 38051 ft 414 kts 275°
2026-05-07 07:15 47.59329 24.72220 38053 ft 414 kts 275°
2026-05-07 07:16 47.59858 24.63722 38058 ft 414 kts 275°
2026-05-07 07:16 47.60385 24.55231 38051 ft 414 kts 275°
2026-05-07 07:17 47.60905 24.46745 38054 ft 413 kts 275°
2026-05-07 07:17 47.61417 24.38250 38052 ft 413 kts 275°
2026-05-07 07:18 47.61922 24.29760 38048 ft 413 kts 274°
2026-05-07 07:18 47.62418 24.21290 38048 ft 412 kts 274°
2026-05-07 07:19 47.62907 24.12815 38043 ft 412 kts 274°
2026-05-07 07:19 47.63388 24.04344 38047 ft 412 kts 274°
2026-05-07 07:20 47.63871 23.95880 38039 ft 411 kts 274°
2026-05-07 07:20 47.64336 23.87421 38044 ft 411 kts 273°
2026-05-07 07:21 47.64773 23.78965 38043 ft 410 kts 273°
2026-05-07 07:21 47.65345 23.70538 38047 ft 411 kts 275°
2026-05-07 07:22 47.66033 23.62168 38051 ft 411 kts 275°
2026-05-07 07:22 47.66704 23.53755 38053 ft 410 kts 275°
2026-05-07 07:23 47.67332 23.45292 38056 ft 410 kts 274°
2026-05-07 07:23 47.67939 23.36920 38054 ft 410 kts 274°
2026-05-07 07:24 47.68556 23.28459 38045 ft 410 kts 274°
2026-05-07 07:24 47.69164 23.20043 38053 ft 410 kts 274°
2026-05-07 07:25 47.70373 23.07468 38022 ft 411 kts 278°
2026-05-07 07:26 47.71478 22.99193 38023 ft 411 kts 279°
2026-05-07 07:26 47.73050 22.91031 38028 ft 415 kts 292°
2026-05-07 07:27 47.76359 22.83962 38024 ft 423 kts 311°
2026-05-07 07:27 47.80514 22.77755 38024 ft 423 kts 311°
2026-05-07 07:28 47.84665 22.71514 38019 ft 424 kts 311°
2026-05-07 07:28 47.88814 22.65244 38015 ft 425 kts 310°
2026-05-07 07:29 47.92964 22.58965 38015 ft 425 kts 311°
2026-05-07 07:29 47.97117 22.52672 38017 ft 425 kts 311°
2026-05-07 07:30 48.01269 22.46370 38011 ft 426 kts 310°
2026-05-07 07:30 48.05419 22.40052 38014 ft 426 kts 310°
2026-05-07 07:31 48.09577 22.33712 38007 ft 426 kts 310°
2026-05-07 07:31 48.13725 22.27377 38005 ft 426 kts 310°
2026-05-07 07:32 48.17867 22.21004 38001 ft 427 kts 310°
2026-05-07 07:32 48.22010 22.14614 38001 ft 427 kts 310°
2026-05-07 07:33 48.26155 22.08227 38002 ft 427 kts 310°
2026-05-07 07:33 48.30312 22.01814 37996 ft 428 kts 310°
2026-05-07 07:34 48.34452 21.95398 37992 ft 428 kts 310°
2026-05-07 07:34 48.38962 21.89471 37992 ft 433 kts 318°
2026-05-07 07:35 48.43729 21.83911 37987 ft 433 kts 318°
2026-05-07 07:35 48.48494 21.78348 37986 ft 434 kts 318°
2026-05-07 07:36 48.53246 21.72792 37984 ft 434 kts 317°
2026-05-07 07:36 48.58024 21.67179 37988 ft 435 kts 317°
2026-05-07 07:37 48.62023 21.62477 37988 ft 435 kts 317°
2026-05-07 07:37 48.66800 21.56837 37991 ft 436 kts 317°
2026-05-07 07:38 48.71587 21.51172 37991 ft 436 kts 317°
2026-05-07 07:38 48.76369 21.45513 37994 ft 436 kts 317°
2026-05-07 07:39 48.81122 21.39877 37992 ft 436 kts 317°
2026-05-07 07:39 48.85892 21.34186 37986 ft 436 kts 317°
2026-05-07 07:40 48.90668 21.28480 37983 ft 436 kts 317°
2026-05-07 07:40 48.95437 21.22767 37977 ft 436 kts 317°
2026-05-07 07:41 49.00207 21.17042 37965 ft 437 kts 316°
2026-05-07 07:41 49.04984 21.11296 37968 ft 437 kts 316°
2026-05-07 07:42 49.09757 21.05541 37965 ft 437 kts 316°
2026-05-07 07:42 49.14532 20.99771 37966 ft 438 kts 316°
2026-05-07 07:43 49.19304 20.93979 37966 ft 438 kts 316°
2026-05-07 07:43 49.24085 20.88162 37961 ft 438 kts 316°
2026-05-07 07:44 49.28865 20.82339 37955 ft 439 kts 316°
2026-05-07 07:44 49.33641 20.76507 37950 ft 439 kts 316°
2026-05-07 07:45 49.38418 20.70644 37950 ft 439 kts 316°
2026-05-07 07:45 49.43196 20.64780 37945 ft 439 kts 316°
2026-05-07 07:46 49.47965 20.58920 37946 ft 439 kts 316°
2026-05-07 07:46 49.52247 20.53639 37943 ft 439 kts 316°
2026-05-07 07:47 49.57007 20.47743 37944 ft 439 kts 316°
2026-05-07 07:47 49.61763 20.41834 37940 ft 439 kts 315°
2026-05-07 07:48 49.66527 20.35914 37937 ft 439 kts 315°
2026-05-07 07:48 49.71277 20.29992 37931 ft 439 kts 315°
2026-05-07 07:49 49.76044 20.24048 37937 ft 440 kts 315°
2026-05-07 07:49 49.80770 20.18118 37932 ft 440 kts 315°
2026-05-07 07:50 49.85529 20.12126 37926 ft 440 kts 315°
2026-05-07 07:50 49.90282 20.06131 37931 ft 440 kts 315°
2026-05-07 07:51 49.95044 20.00126 37920 ft 441 kts 315°
2026-05-07 07:51 49.99805 19.94113 37923 ft 441 kts 315°
2026-05-07 07:52 50.04571 19.88054 37919 ft 441 kts 315°
2026-05-07 07:52 50.09326 19.81983 37922 ft 442 kts 315°
2026-05-07 07:53 50.14084 19.75902 37915 ft 442 kts 315°
2026-05-07 07:53 50.18852 19.69818 37914 ft 443 kts 315°
2026-05-07 07:54 50.23624 19.63711 37919 ft 443 kts 315°
2026-05-07 07:54 50.28379 19.57576 37923 ft 443 kts 314°
2026-05-07 07:55 50.33117 19.51376 37925 ft 443 kts 313°
2026-05-07 07:55 50.37771 19.45046 37924 ft 443 kts 313°
2026-05-07 07:56 50.42409 19.38677 37927 ft 443 kts 313°
2026-05-07 07:56 50.47057 19.32325 37923 ft 443 kts 313°
2026-05-07 07:57 50.51722 19.25972 37918 ft 444 kts 313°
2026-05-07 07:57 50.56388 19.19605 37918 ft 444 kts 313°
2026-05-07 07:58 50.61045 19.13216 37918 ft 444 kts 313°
2026-05-07 07:58 50.65672 19.06834 37916 ft 445 kts 313°
2026-05-07 07:59 50.70331 19.00400 37917 ft 445 kts 313°
2026-05-07 07:59 50.75024 18.93912 37918 ft 445 kts 313°
2026-05-07 08:00 50.79658 18.87490 37924 ft 446 kts 313°
2026-05-07 08:00 50.84323 18.81002 37921 ft 446 kts 313°
2026-05-07 08:01 50.88981 18.74501 37922 ft 446 kts 313°
2026-05-07 08:01 50.93624 18.67950 37926 ft 446 kts 312°
2026-05-07 08:02 50.98234 18.61344 37930 ft 446 kts 312°
2026-05-07 08:02 51.02845 18.54706 37931 ft 446 kts 312°
2026-05-07 08:03 51.07442 18.48098 37931 ft 446 kts 312°
2026-05-07 08:03 51.12045 18.41483 37930 ft 445 kts 312°
2026-05-07 08:04 51.16640 18.34852 37926 ft 445 kts 312°
2026-05-07 08:04 51.21221 18.28224 37932 ft 445 kts 312°
2026-05-07 08:05 51.25794 18.21573 37946 ft 445 kts 312°
2026-05-07 08:05 51.30334 18.14956 37941 ft 444 kts 311°
2026-05-07 08:06 51.34896 18.08297 37944 ft 444 kts 311°
2026-05-07 08:06 51.39457 18.01628 37941 ft 443 kts 312°
2026-05-07 08:07 51.44008 17.94937 37950 ft 443 kts 311°
2026-05-07 08:07 51.48541 17.88250 37947 ft 442 kts 311°
2026-05-07 08:08 51.53074 17.81556 37946 ft 442 kts 311°
2026-05-07 08:08 51.56851 17.75981 37950 ft 442 kts 311°
2026-05-07 08:09 51.61377 17.69273 37946 ft 442 kts 311°
2026-05-07 08:09 51.65890 17.62533 37944 ft 442 kts 311°
2026-05-07 08:10 51.70398 17.55789 37952 ft 442 kts 311°
2026-05-07 08:10 51.74914 17.49025 37961 ft 442 kts 311°
2026-05-07 08:11 51.79425 17.42254 37959 ft 443 kts 311°
2026-05-07 08:11 51.83937 17.35478 37958 ft 443 kts 312°
2026-05-07 08:12 51.88442 17.28682 37969 ft 443 kts 311°
2026-05-07 08:12 51.92944 17.21847 37963 ft 443 kts 311°
2026-05-07 08:13 51.97447 17.15000 37965 ft 443 kts 311°
2026-05-07 08:13 52.01953 17.08150 37966 ft 444 kts 311°
2026-05-07 08:14 52.06461 17.01269 37970 ft 444 kts 311°
2026-05-07 08:14 52.10961 16.94359 37966 ft 444 kts 311°
2026-05-07 08:15 52.15414 16.87511 37964 ft 445 kts 312°
2026-05-07 08:15 52.19923 16.80553 37966 ft 446 kts 312°
2026-05-07 08:16 52.24426 16.73590 37969 ft 446 kts 312°
2026-05-07 08:16 52.28931 16.66606 37968 ft 447 kts 312°
2026-05-07 08:17 52.33441 16.59601 37970 ft 447 kts 312°
2026-05-07 08:17 52.37940 16.52578 37969 ft 447 kts 312°
2026-05-07 08:18 52.42448 16.45529 37968 ft 448 kts 312°
2026-05-07 08:18 52.46961 16.38446 37978 ft 448 kts 312°
2026-05-07 08:19 52.51436 16.31410 37984 ft 449 kts 312°
2026-05-07 08:19 52.55955 16.24298 37974 ft 449 kts 312°
2026-05-07 08:20 52.60457 16.17166 37978 ft 450 kts 312°
2026-05-07 08:20 52.64975 16.09984 37986 ft 451 kts 312°
2026-05-07 08:21 52.69492 16.02799 37989 ft 451 kts 312°
2026-05-07 08:21 52.74011 15.95579 37991 ft 452 kts 312°
2026-05-07 08:22 52.78532 15.88334 37992 ft 452 kts 312°
2026-05-07 08:22 52.83027 15.81101 37996 ft 453 kts 312°
2026-05-07 08:23 52.87569 15.73834 38000 ft 454 kts 312°
2026-05-07 08:23 52.92123 15.66532 38004 ft 454 kts 312°
2026-05-07 08:24 52.96662 15.59219 38009 ft 454 kts 312°
2026-05-07 08:24 53.01160 15.51936 38014 ft 454 kts 312°
2026-05-07 08:25 53.05683 15.44588 38012 ft 454 kts 311°
2026-05-07 08:25 53.10205 15.37230 38019 ft 454 kts 311°
2026-05-07 08:26 53.16973 15.26168 38022 ft 453 kts 311°
2026-05-07 08:26 53.21468 15.18800 38022 ft 453 kts 311°
2026-05-07 08:27 53.25962 15.11410 38027 ft 452 kts 311°
2026-05-07 08:27 53.30435 15.04015 38036 ft 451 kts 311°
2026-05-07 08:28 53.34870 14.96662 38044 ft 451 kts 311°
2026-05-07 08:28 53.39323 14.89263 38049 ft 450 kts 311°
2026-05-07 08:29 53.43771 14.81859 38054 ft 450 kts 311°
2026-05-07 08:29 53.48218 14.74448 38058 ft 449 kts 311°
2026-05-07 08:30 53.52644 14.67030 38056 ft 449 kts 311°
2026-05-07 08:30 53.57059 14.59594 38052 ft 448 kts 311°
2026-05-07 08:31 53.61450 14.52190 38051 ft 448 kts 311°
2026-05-07 08:31 53.65853 14.44746 38055 ft 448 kts 311°
2026-05-07 08:32 53.70257 14.37273 38051 ft 448 kts 311°
2026-05-07 08:32 53.74647 14.29792 38055 ft 447 kts 311°
2026-05-07 08:33 53.79074 14.22384 38054 ft 448 kts 313°
2026-05-07 08:33 53.83612 14.15229 38056 ft 448 kts 314°
2026-05-07 08:34 53.88193 14.08059 38055 ft 448 kts 314°
2026-05-07 08:34 53.92746 14.00812 38057 ft 448 kts 313°
2026-05-07 08:35 53.97262 13.93535 38060 ft 448 kts 313°
2026-05-07 08:35 54.01779 13.86228 38064 ft 447 kts 313°
2026-05-07 08:36 54.06302 13.78926 38063 ft 447 kts 313°
2026-05-07 08:36 54.10813 13.71631 38072 ft 447 kts 313°
2026-05-07 08:37 54.15316 13.64295 38074 ft 447 kts 313°
2026-05-07 08:37 54.19797 13.56947 38077 ft 447 kts 313°
2026-05-07 08:38 54.24294 13.49588 38078 ft 447 kts 313°
2026-05-07 08:38 54.28779 13.42232 38075 ft 446 kts 313°
2026-05-07 08:39 54.33261 13.34856 38076 ft 446 kts 313°
2026-05-07 08:39 54.36983 13.28705 38078 ft 446 kts 313°
2026-05-07 08:40 54.41449 13.21307 38082 ft 446 kts 313°
2026-05-07 08:40 54.45433 13.13284 38087 ft 439 kts 297°
2026-05-07 08:41 54.47749 13.03700 38096 ft 432 kts 284°
2026-05-07 08:41 54.49505 12.93808 38085 ft 433 kts 284°
2026-05-07 08:42 54.51269 12.83900 38081 ft 433 kts 284°
2026-05-07 08:42 54.53022 12.73972 38085 ft 433 kts 284°
2026-05-07 08:43 54.54755 12.64055 38086 ft 433 kts 284°
2026-05-07 08:43 54.56473 12.54108 38091 ft 432 kts 284°
2026-05-07 08:44 54.58178 12.44169 38094 ft 432 kts 284°
2026-05-07 08:44 54.59883 12.34229 38091 ft 432 kts 284°
2026-05-07 08:45 54.62201 12.24648 38090 ft 436 kts 298°
2026-05-07 08:45 54.65330 12.15671 38086 ft 436 kts 298°
2026-05-07 08:46 54.68438 12.06672 38092 ft 436 kts 298°
2026-05-07 08:46 54.71530 11.97634 38098 ft 436 kts 298°
2026-05-07 08:47 54.74608 11.88607 38109 ft 434 kts 298°
2026-05-07 08:47 54.77679 11.79605 38102 ft 433 kts 298°
2026-05-07 08:48 54.80731 11.70616 38106 ft 432 kts 298°
2026-05-07 08:48 54.83746 11.61680 37936 ft 433 kts 298°
2026-05-07 08:49 54.85284 11.57115 36850 ft 444 kts 298°
2026-05-07 08:49 54.86861 11.52431 35946 ft 450 kts 298°
2026-05-07 08:49 54.88436 11.47747 35363 ft 449 kts 298°
2026-05-07 08:49 54.90012 11.43060 34801 ft 447 kts 298°
2026-05-07 08:50 54.91575 11.38396 34254 ft 445 kts 298°
2026-05-07 08:50 54.93126 11.33757 33715 ft 441 kts 298°
2026-05-07 08:50 54.94659 11.29156 33176 ft 437 kts 298°
2026-05-07 08:50 54.96173 11.24605 32648 ft 433 kts 298°
2026-05-07 08:51 54.97674 11.20084 32144 ft 429 kts 298°
2026-05-07 08:51 54.99158 11.15604 31623 ft 425 kts 298°
2026-05-07 08:51 55.00622 11.11166 31115 ft 421 kts 298°
2026-05-07 08:51 55.02073 11.06758 30622 ft 417 kts 298°
2026-05-07 08:52 55.03514 11.02382 30123 ft 413 kts 298°
2026-05-07 08:52 55.04937 10.98069 29539 ft 409 kts 298°
2026-05-07 08:52 55.06352 10.93771 28961 ft 406 kts 298°
2026-05-07 08:52 55.07753 10.89503 28394 ft 402 kts 298°
2026-05-07 08:53 55.09136 10.85272 27844 ft 399 kts 298°
2026-05-07 08:53 55.10507 10.81072 27296 ft 396 kts 298°
2026-05-07 08:53 55.11867 10.76902 26758 ft 393 kts 298°
2026-05-07 08:53 55.13219 10.72758 26234 ft 391 kts 298°
2026-05-07 08:54 55.14556 10.68646 25730 ft 388 kts 298°
2026-05-07 08:54 55.15868 10.64600 25251 ft 386 kts 298°
2026-05-07 08:54 55.17182 10.60532 24778 ft 383 kts 298°
2026-05-07 08:54 55.18487 10.56487 24322 ft 381 kts 298°
2026-05-07 08:55 55.19789 10.52454 23886 ft 379 kts 298°
2026-05-07 08:55 55.21099 10.48390 23403 ft 377 kts 298°
2026-05-07 08:55 55.22365 10.44458 22902 ft 374 kts 298°
2026-05-07 08:55 55.23654 10.40454 22403 ft 372 kts 298°
2026-05-07 08:56 55.24918 10.36516 21913 ft 369 kts 298°
2026-05-07 08:56 55.26163 10.32623 21420 ft 366 kts 298°
2026-05-07 08:56 55.27403 10.28736 20946 ft 363 kts 298°
2026-05-07 08:56 55.28632 10.24884 20480 ft 361 kts 298°
2026-05-07 08:57 55.29852 10.21056 19994 ft 358 kts 298°
2026-05-07 08:57 55.31061 10.17257 19526 ft 355 kts 298°
2026-05-07 08:57 55.32258 10.13484 19052 ft 353 kts 298°
2026-05-07 08:57 55.33449 10.09729 18591 ft 350 kts 298°
2026-05-07 08:58 55.34625 10.06015 18095 ft 348 kts 298°
2026-05-07 08:58 55.35798 10.02304 17589 ft 346 kts 298°
2026-05-07 08:58 55.36958 9.98633 17081 ft 343 kts 298°
2026-05-07 08:58 55.38114 9.94967 16571 ft 341 kts 298°
2026-05-07 08:59 55.39260 9.91320 16079 ft 339 kts 298°
2026-05-07 08:59 55.40395 9.87701 15589 ft 337 kts 298°
2026-05-07 08:59 55.41525 9.84094 15122 ft 336 kts 298°
2026-05-07 08:59 55.42646 9.80504 14655 ft 334 kts 298°
2026-05-07 09:00 55.43764 9.76925 14198 ft 333 kts 298°
2026-05-07 09:00 55.44875 9.73369 13763 ft 331 kts 299°
2026-05-07 09:00 55.45998 9.69768 13268 ft 329 kts 299°
2026-05-07 09:00 55.47099 9.66239 12819 ft 328 kts 299°
2026-05-07 09:01 55.48191 9.62731 12370 ft 326 kts 299°
2026-05-07 09:01 55.49263 9.59288 11987 ft 322 kts 299°
2026-05-07 09:01 55.50332 9.55840 11871 ft 310 kts 299°
2026-05-07 09:01 55.51338 9.52589 11509 ft 297 kts 299°
2026-05-07 09:02 55.52320 9.49403 10948 ft 293 kts 299°
2026-05-07 09:02 55.53292 9.46251 10368 ft 291 kts 299°
2026-05-07 09:02 55.54254 9.43133 9767 ft 289 kts 300°
2026-05-07 09:02 55.55210 9.40035 9156 ft 286 kts 299°
2026-05-07 09:03 55.56149 9.36989 8721 ft 277 kts 299°
2026-05-07 09:03 55.57055 9.34050 8367 ft 267 kts 299°
2026-05-07 09:03 55.57926 9.31218 8035 ft 257 kts 298°
2026-05-07 09:03 55.58761 9.28487 7723 ft 249 kts 298°
2026-05-07 09:04 55.59585 9.25790 7408 ft 249 kts 298°
2026-05-07 09:04 55.60405 9.23102 7122 ft 248 kts 298°
2026-05-07 09:04 55.61223 9.20426 6810 ft 248 kts 298°
2026-05-07 09:04 55.62049 9.17716 6497 ft 252 kts 297°
2026-05-07 09:05 55.62886 9.14969 6155 ft 256 kts 298°
2026-05-07 09:05 55.63736 9.12173 5807 ft 259 kts 297°
2026-05-07 09:05 55.64591 9.09360 5482 ft 260 kts 297°
2026-05-07 09:05 55.65442 9.06523 5159 ft 261 kts 294°
2026-05-07 09:06 55.65840 9.03431 4932 ft 259 kts 269°
2026-05-07 09:06 55.65746 9.00243 4695 ft 259 kts 265°
2026-05-07 09:06 55.65590 8.97067 4446 ft 258 kts 264°
2026-05-07 09:06 55.65431 8.93913 4237 ft 255 kts 264°
2026-05-07 09:07 55.65276 8.90821 4105 ft 249 kts 263°
2026-05-07 09:07 55.65129 8.87784 3958 ft 244 kts 264°
2026-05-07 09:07 55.65008 8.84842 3811 ft 237 kts 271°
2026-05-07 09:07 55.65389 8.82047 3685 ft 232 kts 296°
2026-05-07 09:08 55.66384 8.79904 3627 ft 223 kts 323°
2026-05-07 09:08 55.67756 8.78774 3568 ft 221 kts 348°
2026-05-07 09:08 55.69288 8.78776 3504 ft 222 kts 14°
2026-05-07 09:08 55.70722 8.79801 3457 ft 223 kts 27°
2026-05-07 09:09 55.71956 8.81368 3407 ft 215 kts 48°
2026-05-07 09:09 55.72761 8.83530 3351 ft 207 kts 69°
2026-05-07 09:09 55.73081 8.85961 3293 ft 201 kts 88°
2026-05-07 09:09 55.73165 8.88433 3081 ft 202 kts 88°
2026-05-07 09:10 55.73247 8.90950 2832 ft 206 kts 88°
2026-05-07 09:10 55.73331 8.93510 2535 ft 210 kts 88°
2026-05-07 09:10 55.73415 8.96027 2275 ft 197 kts 87°
2026-05-07 09:10 55.73493 8.98402 1980 ft 187 kts 87°
2026-05-07 09:11 55.73564 9.00571 1762 ft 164 kts 87°
2026-05-07 09:11 55.73627 9.02497 1529 ft 150 kts 87°
2026-05-07 09:11 55.73666 9.03708 1386 ft 145 kts 87°
2026-05-07 09:11 55.73724 9.05484 1191 ft 143 kts 87°
2026-05-07 09:12 55.73778 9.07241 978 ft 142 kts 88°
2026-05-07 09:12 55.73833 9.08992 802 ft 142 kts 87°
2026-05-07 09:12 55.73896 9.10738 568 ft 141 kts 88°
2026-05-07 09:12 55.73953 9.12480 384 ft 141 kts 87°
2026-05-07 09:13 55.74003 9.14168 251 ft 141 kts 87°
2026-05-07 09:13 55.74051 9.15764 217 ft 116 kts 86°
2026-05-07 09:13 55.74080 9.16704 219 ft 24 kts 86°
2026-05-07 09:13 55.74116 9.16896 216 ft 15 kts 31°
2026-05-07 09:14 55.74202 9.16905 216 ft 7 kts 355°
2026-05-07 09:14 55.74243 9.16873 220 ft 8 kts 298°
2026-05-07 09:14 55.74250 9.16775 220 ft 7 kts 266°
2026-05-07 09:14 55.74245 9.16667 216 ft 10 kts 266°
2026-05-07 09:15 55.74242 9.16538 216 ft 11 kts 267°
2026-05-07 09:15 55.74238 9.16393 216 ft 13 kts 268°
2026-05-07 09:15 55.74233 9.16212 216 ft 16 kts 266°
2026-05-07 09:15 55.74226 9.15995 216 ft 19 kts 266°
2026-05-07 09:16 55.74219 9.15747 219 ft 22 kts 267°
2026-05-07 09:16 55.74210 9.15463 216 ft 24 kts 266°
2026-05-07 09:16 55.74201 9.15194 216 ft 22 kts 267°
2026-05-07 09:16 55.74244 9.14991 216 ft 13 kts 355°
2026-05-07 09:17 55.74343 9.14986 219 ft 16 kts 355°
2026-05-07 09:17 55.74445 9.14923 216 ft 17 kts 298°
2026-05-07 09:17 55.74449 9.14764 216 ft 10 kts 266°
2026-05-07 09:17 55.74447 9.14719 216 ft 1 kts 266°
2026-05-07 09:18 55.74453 9.14697 224 ft 2 kts 309°
2026-05-07 09:18 55.74510 9.14686 216 ft 9 kts 357°
2026-05-07 09:18 55.74534 9.14683 221 ft 0 kts 357°